Weather in Vilhelmina

Sweden     64°36′59″N   16°40′06″E
temp.,
°C
wind,
m/s
gust,
m/s
humid.,
%
clouds,
%
prec.,
mm/h
press.,
hPa
HPBL,
m
8 may, sat
sat823:00−2wnw118034 0.0 100410
02:00−2w117944 0.0 100413
05:00−2w12795 0.0 100547
08:00+1wnw36525 0.0 1005644
11:00+4wnw45425 0.0 10051700
14:00+5wnw574199 0.1 10062419
17:00+5wnw574539 0.1 10061896
20:00+2w37668 0.1 1007749
9 may, sun
sun923:00−2w29855 0.0 1009207
02:00−2w26823 0.0 1009129
05:00−2sw11805 0.0 100934
08:00+3wsw24475 0.0 1008566
11:00+6wsw3438100 0.0 10071487
14:00+8sw3532100 0.0 10062271
17:00+8ssw3535100 0.0 10052048
20:00+4sse3679100 0.1 1007721
10 may, mon
mon1023:00+3se118479 0.1 100617
02:00+1se2383100 0.1 100776
05:00+2ese1687100 0.0 1007430
08:00+2ese2699100 0.1 1007346
11:00+3ese1397100 0.3 1008432
14:00+3e1297100 0.4 1009435
17:00+3e1297100 0.0 1010334
20:00+3ene1298100 0.0 1011192
11 may, tue
tue1123:00+3ne1399100 0.3 1010150
02:00+3ese21098100 3.8 1008410
05:00+4sse2899100 6.6 1005384
08:00+6s31398100 7.1 1005701
11:00+8sw31098100 0.1 1007430
14:00+11wsw51171100 0.1 10101295
17:00+11wsw3872100 0.0 1012880
20:00+8ssw2388100 0.0 101486
12 may, wed
wed1223:00+7ssw1188100 0.0 101519
02:00+7wnw1187100 0.0 101610
05:00+6n2290100 0.0 101832
08:00+8nne2476100 0.0 1019297
11:00+12e3459100 0.0 1018912
14:00+13ese4563100 0.0 10181274
17:00+8e3995100 2.0 1019504
20:00+7e4996100 9.8 1018513